Simultaneous Nadir Overpasses (SNOs) Predictions

Prediction of SNOs between GOES-16 and TERRA Satellite Orbit:

Table of predicted SNOs for the next 14.0 days since TLE Epoch: 10/20/2024
Index Date Time (GOES-16) GOES-16 Lat,Lon TERRA Lat,Lon Distance(km) Time Diff (sec)
1 10/20/2024 14:26:28 -0.06, -75.21 -0.81, -71.60 410.06 80
2 10/21/2024 02:43:42 0.06, -75.19 -0.19, -76.44 142.16 80
3 10/23/2024 02:28:20 0.05, -75.20 0.69, -72.09 352.69 80
4 10/23/2024 14:48:06 -0.05, -75.22 0.29, -76.90 190.67 80
5 10/25/2024 14:27:23 -0.04, -75.24 -0.60, -72.55 305.74 80
6 10/26/2024 02:49:56 0.04, -75.22 -0.40, -77.39 245.58 80
7 10/28/2024 02:29:12 0.04, -75.25 0.51, -73.03 252.54 80
8 10/28/2024 14:51:36 -0.04, -75.28 0.51, -77.83 290.04 80
9 10/30/2024 14:30:52 -0.04, -75.32 -0.42, -73.48 209.37 80
10 10/31/2024 02:53:23 0.04, -75.31 -0.60, -78.31 341.16 80
11 11/02/2024 02:32:37 0.03, -75.35 0.35, -73.95 159.27 80
12 11/02/2024 14:55:02 -0.03, -75.38 0.64, -78.75 382.91 80
